MICROCARB

Last updated on Sun Apr 12 2026 00:02:36 GMT+0000 (Coordinated Universal Time)

1 64899U 25156A 26101.47865295 .00000455 00000+0 79760-4 0 9997 2 64899 97.9847 179.8053 0017609 123.3464 236.9432 14.72255131 38158
UTC large
Height (km)
Speed (km/s)
/
Latitude / Longitude
Inclination (degrees)
Orbital Period (minutes)
Azimuth
Elevation
Range (km)
Doppler Factor

Next 0 passes for location: London (51.5072 / 0.1276)

Sorry there are no passes over London.
MICROCARB